Location: Mexico
(19.4000°N, 99.1500°W)
Time: 17:08:55
(UTC-06:00)

ISS - Pass Details

Date: 18 April 2018
Orbit: 402 x 407 km, 51.6° (Epoch: 27 April)

Event Time Altitude Azimuth Distance (km) Brightness Sun altitude
Rises 19:38:55 0° 290° (WNW) 2,318 2.3 -10.8°
Reaches altitude 10° 19:42:47 10° 244° (WSW) 1,456 -0.3 -11.7°
Maximum altitude 19:43:11 10° 236° (WSW) 1,446 -0.5 -11.8°
Drops below altitude 10° 19:43:35 10° 229° (SW) 1,455 -0.6 -11.9°
Sets 19:47:27 0° 183° (S) 2,311 -0.1 -12.7°
